Beaufort, NC

5:41 AM EDT on October 16, 2019 (GMT -0400)
Smith

Weather History for KMRH - May, 2019

Change the Weather History Date:

Thursday, May 9, 2019

  Actual Average Record
Temperature  
Mean Temperature 72 °F -  
Max Temperature 80 °F 74 °F 82 °F (1952)
Min Temperature 66 °F 56 °F 44 °F (1987)
Cooling Degree Days 8    
Growing Degree Days 22 (Base 50)    
Moisture  
Dew Point 60 °F    
Average Humidity 62    
Maximum Humidity 81    
Minimum Humidity 48    
Precipitation  
Precipitation 0.00 in - - ()
Sea Level Pressure  
Sea Level Pressure 30.16 in    
Wind  
Wind Speed 6 mph (SE)    
Max Wind Speed 12 mph    
Max Gust Speed 22 mph    
Visibility 10 miles    
Events      
Averages and records for this station are not official NWS values.
T = Trace of Precipitation, MM = Missing Value Source: NWS Daily Summary

Daily Weather History Graph

Daily Weather History Graph

Search for Another Location

Airport or City:

Astronomy

May. 09, 2019 Rise Set
Actual Time 6:08 AM EDT 7:57 PM EDT
Civil Twilight 5:41 AM EDT 8:25 PM EDT
Nautical Twilight 5:08 AM EDT 8:58 PM EDT
Astronomical Twilight 4:32 AM EDT 9:34 PM EDT
Moon 10:05 AM EDT (5/9) No Moon Set
Length of Visible Light 14h 44m
Length of Day
13h 49m
Waxing Crescent, 24% of the Moon is Illuminated
May 9
Waxing Crescent
May 11
First Quarter
May 18
Full
May 26
Last Quarter
Jun 3
New

Hourly Weather History & Observations

Time (EDT) Temp. Dew Point Humidity Pressure Visibility Wind Dir Wind Speed Gust Speed Precip Events Conditions
12:58 AM 71.1 °F 63.0 °F 75% 30.17 in 10.0 mi SE 4.6 mph - N/A   Mostly Cloudy
1:58 AM 71.1 °F 62.1 °F 73% 30.18 in 10.0 mi SE 5.8 mph - N/A   Mostly Cloudy
2:58 AM 70.0 °F 61.0 °F 73% 30.17 in 10.0 mi SE 3.5 mph - N/A   Clear
3:58 AM 69.1 °F 60.1 °F 73% 30.16 in 10.0 mi ESE 4.6 mph - N/A   Clear
4:58 AM 69.1 °F 59.0 °F 70% 30.17 in 10.0 mi SE 3.5 mph - N/A   Partly Cloudy
5:58 AM 68.0 °F 59.0 °F 73% 30.18 in 10.0 mi SE 4.6 mph - N/A   Clear
6:58 AM 66.0 °F 60.1 °F 81% 30.19 in 10.0 mi Calm Calm - N/A   Clear
7:58 AM 73.0 °F 60.1 °F 64% 30.19 in 10.0 mi SSE 5.8 mph - N/A   Clear
8:58 AM 75.0 °F 59.0 °F 57% 30.19 in 10.0 mi Variable 5.8 mph - N/A   Clear
9:58 AM 75.9 °F 57.9 °F 54% 30.19 in 10.0 mi SE 6.9 mph - N/A   Clear
10:58 AM 77.0 °F 57.9 °F 52% 30.17 in 10.0 mi SE 6.9 mph - N/A   Clear
11:58 AM 77.0 °F 57.9 °F 52% 30.17 in 10.0 mi SSE 10.4 mph - N/A   Clear
12:58 PM 79.0 °F 59.0 °F 50% 30.17 in 10.0 mi ESE 9.2 mph - N/A   Clear
1:58 PM 79.0 °F 57.9 °F 48% 30.16 in 10.0 mi SE 11.5 mph - N/A   Clear
2:58 PM 79.0 °F 57.9 °F 48% 30.16 in 10.0 mi ESE 11.5 mph 21.9 mph N/A   Clear
3:58 PM 79.0 °F 59.0 °F 50% 30.16 in 10.0 mi SSE 9.2 mph - N/A   Mostly Cloudy
4:58 PM 78.1 °F 60.1 °F 54% 30.15 in 10.0 mi SSE 10.4 mph - N/A   Clear
5:58 PM 77.0 °F 60.1 °F 56% 30.14 in 10.0 mi SSE 9.2 mph - N/A   Clear
6:58 PM 75.9 °F 59.0 °F 56% 30.14 in 10.0 mi ESE 5.8 mph - N/A   Clear
7:58 PM 73.0 °F 59.0 °F 61% 30.13 in 10.0 mi ESE 4.6 mph - N/A   Clear
8:58 PM 73.0 °F 60.1 °F 64% 30.13 in 10.0 mi ESE 6.9 mph - N/A   Clear
9:58 PM 73.0 °F 62.1 °F 68% 30.14 in 10.0 mi SSE 9.2 mph - N/A   Clear
10:58 PM 72.0 °F 63.0 °F 73% 30.15 in 10.0 mi SSE 4.6 mph - N/A   Clear
11:58 PM 71.1 °F 62.1 °F 73% 30.15 in 10.0 mi SSE 4.6 mph - N/A   Clear